Weather in Kolyon

Russia / Kemerovo Oblast     56°28′26″N   86°33′19″E
temp.,
°C
wind,
m/s
gust,
m/s
humid.,
%
clouds,
%
prec.,
mm/h
press.,
hPa
HPBL,
m
20 may, fri
fri2001:00+16wsw71384100 15.7 1005794
04:00+13wsw513820 0.1 1008527
07:00+12sw614745 0.1 1010551
10:00+17sw715501 0.0 10112182
13:00+19wsw813395 0.0 10112581
16:00+20sw610355 0.0 10112875
19:00+19sw5104181 0.0 10101125
22:00+14s39625 0.1 1010159
21 may, sat
sat2101:00+14sw6135378 0.1 1010755
04:00+12sw61580100 0.3 1009857
07:00+13wsw5118180 0.6 10101049
10:00+15wsw6114995 0.1 10111896
13:00+18wsw71136100 0.1 10112245
16:00+20wsw6103195 0.0 10102362
19:00+18w254480 0.0 1010745
22:00+12ne235741 0.0 101038
22 may, sun
sun2201:00+11se267051 0.1 100897
04:00+11ene228029 0.1 100739
07:00+15sse11735 0.1 100771
10:00+21e11535 0.0 1006451
13:00+25ene334549 0.0 1004865
16:00+26ene3438100 0.0 10041534
19:00+24ne3749100 0.0 1004269
22:00+19ene5135795 0.0 1006400
23 may, mon
mon2301:00+16e5136582 0.0 1007397
04:00+14ese4126889 0.0 1007318
07:00+15wnw71276100 0.0 1011777
10:00+15w5946100 0.0 1016986
13:00+17wsw5732100 0.0 10181460
16:00+19sw47303 0.0 10191910
19:00+19sw46360 0.0 1020950
22:00+13ssw355215 0.0 102180
24 may, tue
tue2401:00+11ssw3106273 0.0 1021209
04:00+10ssw376199 0.0 1021136
07:00+12s246030 0.0 1021134
10:00+17sse234298 0.0 1020575
13:00+22sse12310 0.0 10181322
16:00+24ne112873 0.0 10171524
19:00+22ese2237100 0.0 1016279
22:00+16se114697 0.0 101711